Terug naar catalogus

STARLINK-32818

ActiefCommunicatieVLEO
NORAD 63036·PAYLOAD·🇺🇸 United States

Gelanceerd Feb 18, 2025 vanaf Cape Canaveral Space Force Station

Loading…

Volgende Passages (komende 24 uur)

TLE

VersSource: CelesTrak SupGP

Epoch: Sep 14, 2026, 21:12 UTC

1 63036C 25034H   26257.88381944 -.00022840  00000+0 -73462-3 0  2578
2 63036  53.1582  99.1380 0001334  88.4572   2.5766 15.31706644    13

Volg STARLINK-32818 in realtime met AllMySat

Download on the App Store